{"data":{"norad_id":38337,"epoch":"2026-05-24T19:42:37.071360Z","epoch_age_seconds":86934,"freshness":"FRESH","line1":"1 38337U 12025A   26144.82126240  .00000375  00000+0  93223-4 0  9993","line2":"2 38337  98.2014  85.7324 0001773  92.1961 322.5139 14.57098508745632","mean_motion":14.57098508,"eccentricity":0.0001773,"inclination_deg":98.2014,"raan_deg":85.7324,"arg_perigee_deg":92.1961,"mean_anomaly_deg":322.5139,"bstar":9.3223e-5,"rev_number":74563,"period_min":98.826537265249,"perigee_km":701.30277828301,"apogee_km":703.8135927958,"semimajor_km":7080.6951855394,"source":"CELESTRAK","updated_at":"2026-05-25T13:38:24.640538Z"}}